Location: Piedmont
(45.8748°N, 74.1254°W)
Time: 04:58:16
(UTC+00:00)

ISS - Visible Passes

Search period start: 28 November 2021 00:00
Search period end: 08 December 2021 00:00
Orbit: 417 x 423 km, 51.6° (Epoch: 28 November)

Date Brightness Start Highest point End Pass type
(mag) Time Alt. Az. Time Alt. Az. Time Alt. Az.
28 Nov -2.5 23:06:14 10° WNW 23:09:08 29° N 23:09:08 29° N visible
29 Nov -2.5 22:18:55 10° WNW 22:21:57 29° N 22:23:51 18° NE visible
29 Nov -0.9 23:56:01 10° WNW 23:56:50 16° NW 23:56:50 16° NW visible
30 Nov -2.7 23:08:50 10° NW 23:11:33 34° N 23:11:33 34° N visible
01 Dec -2.7 22:21:35 10° WNW 22:24:41 32° N 22:26:19 20° ENE visible
01 Dec -0.9 23:58:25 10° WNW 23:59:19 17° WNW 23:59:19 17° WNW visible
02 Dec -3.3 23:11:13 10° WNW 23:14:08 53° NNW 23:14:08 53° NNW visible
03 Dec -3.3 22:24:00 10° WNW 22:27:17 44° NNE 22:29:03 23° E visible
04 Dec -1.0 00:00:53 10° WNW 00:02:04 19° W 00:02:04 19° W visible
04 Dec -3.5 23:13:33 10° WNW 23:16:56 64° SSW 23:17:06 63° SSW visible
05 Dec -3.8 22:26:17 10° WNW 22:29:42 85° NNE 22:32:20 16° ESE visible
06 Dec -0.8 00:03:54 10° W 00:05:21 15° WSW 00:05:21 15° WSW visible
06 Dec -1.6 23:16:09 10° W 23:19:01 26° SW 23:20:50 16° S visible
07 Dec -2.4 22:28:38 10° WNW 22:31:51 40° SW 22:35:03 10° SE visible
